Fire Weather Observation
Issued by NWS Grand Junction, CO

Home | Current Version | Previous Version | Graphics & Text | Print | Product List | Glossary On
Versions: 1 2 3 4 5 6 7 8 9 10 11 12 13 14 15 16 17 18 19 20 21 22 23 24 25 26 27 28 29 30 31 32
000
SHUS65 KGJT 172013
FWOGJT

DAILY FIRE WEATHER OBSERVATION
NATIONAL WEATHER SERVICE GRAND JUNCTION CO
212 PM MDT SUN JUL 17 2016

STATE OF THE WEATHER (W)               1
DRY BULB TEMPERATURE                   96   DEGREES FAHRENHEIT
RELATIVE HUMIDITY (RH)                 9    PERCENT
LIGHTNING ACTIVITY LEVEL
  (LAL - MIDNIGHT TO 2 PM)             1
WIND DIRECTION                         270  DEGREES (C IF CALM)
WIND SPEED                             12   MPH
MAX TEMP (2 PM - 2 PM)                 101  DEGREES FAHRENHEIT
MIN TEMP (2 PM - 2 PM)                 66   DEGREES FAHRENHEIT
MAX RH (2 PM - 2 PM)                   25   PERCENT
MIN RH (2 PM - 2 PM)                   6    PERCENT
PCPN DURATION                          0.0  HOURS
PCPN AMT (2 PM - 2 PM)                 0.0  INCHES
LAL (2 PM - 2 PM)                      1

$$

METAR KGJT 171953Z 28010G18KT 10SM CLR 36/M02 A3005 RMK AO2
      SLP085 T03561022



USA.gov is the U.S. government's official web portal to all federal, state and local government web resources and services.